Flag for U.S.A. Weather past 2 weeks in Salina, Kansas, U.S.A.

Now
29 °F

Overcast.


Feels Like: 25 °F
Forecast: 32 / 64 °F
Wind: 3 mph from Southeast

Location: Salina Municipal Airport

Current Time: Jan 26, 2015 at 2:29:58 AM

Latest Report: Jan 26, 2015 at 1:53 AM


Visibility: 10 mi

Pressure: 30.14 "Hg

Humidity: 85%

Dew point: 25 °F

Location of SalinaLocation

Historic Weather in Salina — Graph

°F

Salina temperature yesterday

Maximum temperature yesterday: 49 °F (at 2:53 PM)
Minimum temperature yesterday: 27 °F (at 10:53 PM)
Average temperature yesterday: 43 °F

Past Weeks' High & Low Weather Summary

 TemperatureHumidityPressure
High64 °F (Jan 16, 2:53 PM)93% (Jan 11, 9:53 PM)30.73 "Hg (Jan 11, 9:53 PM)
Low10 °F (Jan 13, 6:53 AM)22% (Jan 23, 3:53 PM)29.75 "Hg (Jan 17, 1:53 AM)
Average36 °F59%30.20 "Hg
* Reported Jan 11 12:53 AM — Jan 26 12:53 AM, Salina, Weather by CustomWeather, © 2014

Note: Actual official high and low records may vary slightly from our data, if they occured in-between our weather recording intervals... More about our weather records

Advertising

Salina weather history for previous 24 hours

 ConditionsComfort  
Time TempWeatherWind HumidityBarometerVisibility
12:53 AM
Jan 26
27 °FClear.3 mph89%30.14 "Hg10 mi
11:53 PM
Jan 25
31 °FClear.10 mph85%30.14 "Hg10 mi
10:53 PM27 °FClear.6 mph85%30.14 "Hg10 mi
9:53 PM30 °FClear.5 mph85%30.14 "Hg10 mi
8:53 PM32 °FClear.No wind82%30.14 "Hg10 mi
7:53 PM34 °FClear.3 mph76%30.15 "Hg10 mi
6:53 PM38 °FClear.7 mph70%30.15 "Hg10 mi
5:53 PM44 °FClear.13 mph58%30.12 "Hg10 mi
4:53 PM47 °FSunny.21 mph52%30.11 "Hg10 mi
3:53 PM49 °FPassing clouds.25 mph48%30.07 "Hg10 mi
2:53 PM49 °FOvercast.24 mph50%30.05 "Hg10 mi
1:53 PM48 °FOvercast.29 mph52%30.03 "Hg10 mi
12:53 PM47 °FOvercast.29 mph54%30.02 "Hg10 mi
11:53 AM45 °FOvercast.22 mph58%30.01 "Hg10 mi
10:53 AM46 °FOvercast.29 mph56%29.99 "Hg10 mi
9:53 AM46 °FMostly cloudy.26 mph54%29.95 "Hg10 mi
8:53 AM46 °FMostly cloudy.28 mph56%29.92 "Hg10 mi
7:53 AM46 °FOvercast.32 mph58%29.91 "Hg10 mi
6:53 AM46 °FOvercast.29 mph61%29.87 "Hg10 mi
5:53 AM45 °FOvercast.26 mph68%29.86 "Hg10 mi
4:53 AM45 °FLight rain. Overcast.28 mph74%29.84 "Hg10 mi
3:53 AM47 °FMostly cloudy.23 mph59%29.81 "Hg10 mi
2:53 AM47 °FPassing clouds.25 mph59%29.80 "Hg10 mi
Weather by CustomWeather, © 2014

See weather overviewHow to use our weather pages